Weather History for Watonga, OK

Change the Weather History Date:

Monday, November 26, 2012

  Actual Average Record
Temperature  
Mean Temperature 42 °F -  
Max Temperature 50 °F 56 °F 78 °F (1970)
Min Temperature 32 °F 33 °F 10 °F (1975)
Degree Days  
Heating Degree Days 24    
Moisture  
Dew Point 30 °F    
Average Humidity 68    
Maximum Humidity 86    
Minimum Humidity 41    
Precipitation  
Precipitation 0.00 in - - ()
Sea Level Pressure  
Sea Level Pressure 30.13 in    
Wind  
Wind Speed 14 mph (North)    
Max Wind Speed 30 mph    
Max Gust Speed 38 mph    
Visibility 10 miles    
Events      
Averages and records for this station are not official NWS values.
T = Trace of Precipitation, MM = Missing Value Source: NWS Daily Summary

Daily Weather History Graph

Daily Weather History Graph

Search for Another Location

Airport:

Trip Planner

Search our weather history database for the weather conditions in past years. The results will help you decide how hot, cold, wet, or windy it might be!

Date:

Astronomy

Nov. 26, 2012 Rise Set
Actual Time 7:21 AM CST 5:20 PM CST
Civil Twilight 6:53 AM CST 5:48 PM CST
Nautical Twilight 6:21 AM CST 6:20 PM CST
Astronomical Twilight 5:51 AM CST 6:50 PM CST
Moon 4:12 PM CST (11/26) 5:34 AM CST (11/26)
Length of Visible Light 10h 55m
Length of Day
9h 59m
Waxing Gibbous, 97% of the Moon is Illuminated
Nov 26
Waxing Gibbous
Nov 28
Full
Dec 6
Last Quarter
Dec 13
New
Dec 19
First Quarter

Hourly Weather History & Observations

Time (CST) Temp. Windchill Dew Point Humidity Pressure Visibility Wind Dir Wind Speed Gust Speed Precip Events Conditions
12:15 AM 40.3 °F 37.1 °F 32.9 °F 75% 29.88 in 10.0 mi North 4.6 mph - N/A   Clear
12:35 AM 39.2 °F 34.2 °F 33.6 °F 80% 29.88 in 10.0 mi North 6.9 mph - N/A   Clear
12:55 AM 43.0 °F 38.2 °F 34.3 °F 72% 29.87 in 10.0 mi North 8.1 mph - N/A   Clear
1:15 AM 42.4 °F 38.8 °F 34.2 °F 72% 29.87 in 10.0 mi NNE 5.8 mph - N/A   Clear
1:35 AM 41.5 °F 37.1 °F 34.2 °F 75% 29.87 in 10.0 mi NNE 6.9 mph - N/A   Clear
1:55 AM 41.4 °F 34.3 °F 34.7 °F 77% 29.86 in 10.0 mi NNE 12.7 mph - N/A   Clear
2:15 AM 41.2 °F 35.0 °F 34.3 °F 77% 29.87 in 10.0 mi North 10.4 mph - N/A   Clear
2:35 AM 40.8 °F 35.6 °F 34.2 °F 77% 29.87 in 10.0 mi NNE 8.1 mph - N/A   Clear
2:55 AM 39.6 °F 33.0 °F 34.0 °F 80% 29.88 in 10.0 mi North 10.4 mph - N/A   Clear
3:15 AM 40.1 °F 34.1 °F 33.8 °F 78% 29.89 in 10.0 mi North 9.2 mph - N/A   Clear
3:35 AM 39.7 °F 33.2 °F 33.6 °F 79% 29.90 in 10.0 mi North 10.4 mph - N/A   Clear
3:55 AM 39.2 °F 33.6 °F 33.3 °F 79% 29.90 in 10.0 mi North 8.1 mph - N/A   Clear
4:15 AM 38.8 °F 32.6 °F 33.1 °F 80% 29.90 in 10.0 mi North 9.2 mph - N/A   Clear
4:35 AM 38.7 °F 31.8 °F 33.1 °F 80% 29.90 in 10.0 mi North 10.4 mph - N/A   Clear
4:55 AM 38.5 °F 30.3 °F 32.9 °F 80% 29.90 in 10.0 mi North 13.8 mph - N/A   Clear
5:15 AM 38.3 °F 29.7 °F 32.5 °F 80% 29.91 in 10.0 mi North 15.0 mph - N/A   Clear
5:35 AM 37.9 °F 28.9 °F 32.2 °F 80% 29.92 in 10.0 mi North 16.1 mph - N/A   Clear
5:55 AM 37.4 °F 28.9 °F 32.0 °F 81% 29.94 in 10.0 mi North 13.8 mph - N/A   Clear
6:15 AM 37.0 °F 28.1 °F 32.0 °F 82% 29.94 in 10.0 mi North 15.0 mph - N/A   Clear
6:35 AM 36.7 °F 27.6 °F 32.0 °F 83% 29.96 in 10.0 mi North 15.0 mph - N/A   Clear
6:55 AM 36.5 °F 27.4 °F 32.2 °F 84% 29.97 in 10.0 mi North 15.0 mph - N/A   Clear
7:15 AM 36.1 °F 26.5 °F 32.2 °F 86% 29.99 in 10.0 mi North 16.1 mph - N/A   Clear
7:35 AM 36.0 °F 26.7 °F 32.2 °F 86% 30.00 in 10.0 mi North 15.0 mph 20.7 mph N/A   Clear
7:55 AM 36.1 °F 25.9 °F 32.2 °F 86% 30.01 in 10.0 mi North 18.4 mph 24.2 mph N/A   Clear
8:15 AM 36.9 °F 26.8 °F 32.4 °F 84% 30.03 in 10.0 mi North 18.4 mph 24.2 mph N/A   Clear
9:15 AM 38.3 °F 27.3 °F 32.0 °F 78% 30.08 in 10.0 mi North 24.2 mph 29.9 mph N/A   Clear
9:35 AM 38.7 °F 28.6 °F 32.0 °F 77% 30.09 in 10.0 mi North 20.7 mph 32.2 mph N/A   Clear
9:55 AM 39.2 °F 28.0 °F 32.0 °F 75% 30.10 in 10.0 mi North 26.5 mph 32.2 mph N/A   Clear
10:15 AM 40.1 °F 29.9 °F 32.0 °F 73% 30.11 in 10.0 mi North 23.0 mph 28.8 mph N/A   Clear
10:35 AM 40.3 °F 30.4 °F 32.0 °F 72% 30.12 in 10.0 mi North 21.9 mph 28.8 mph N/A   Clear
10:55 AM 41.0 °F 31.1 °F 32.0 °F 70% 30.13 in 10.0 mi North 23.0 mph 29.9 mph N/A   Clear
11:15 AM 42.1 °F 32.8 °F 32.0 °F 67% 30.14 in 10.0 mi North 21.9 mph - N/A   Clear
11:35 AM 43.0 °F 34.0 °F 32.0 °F 65% 30.14 in 10.0 mi North 21.9 mph 28.8 mph N/A   Clear
11:55 AM 44.2 °F 35.2 °F 32.0 °F 62% 30.14 in 10.0 mi North 24.2 mph - N/A   Clear
12:15 PM 46.2 °F 37.9 °F 32.5 °F 59% 30.14 in 10.0 mi North 24.2 mph 29.9 mph N/A   Clear
12:35 PM 46.8 °F - 32.4 °F 57% 30.14 in 10.0 mi North 28.8 mph - N/A   Clear
12:55 PM 47.1 °F - 32.2 °F 56% 30.14 in 10.0 mi North 28.8 mph 34.5 mph N/A   Clear
1:15 PM 48.0 °F - 32.0 °F 54% 30.14 in 10.0 mi North 27.6 mph 38.0 mph N/A   Clear
1:35 PM 49.1 °F - 32.4 °F 53% 30.15 in 10.0 mi North 27.6 mph 35.7 mph N/A   Clear
2:15 PM 49.1 °F - 32.0 °F 52% 30.17 in 10.0 mi North 29.9 mph 35.7 mph N/A   Clear
2:35 PM 49.8 °F - 32.0 °F 50% 30.18 in 10.0 mi NNE 26.5 mph 33.4 mph N/A   Clear
2:55 PM 49.8 °F - 32.0 °F 50% 30.18 in 10.0 mi North 26.5 mph 34.5 mph N/A   Clear
3:15 PM 50.0 °F - 32.0 °F 50% 30.19 in 10.0 mi North 29.9 mph 34.5 mph N/A   Clear
3:35 PM 49.3 °F - 32.0 °F 51% 30.20 in 10.0 mi North 25.3 mph 29.9 mph N/A   Clear
3:55 PM 48.2 °F - 30.7 °F 51% 30.22 in 10.0 mi North 24.2 mph 32.2 mph N/A   Clear
4:15 PM 47.8 °F - 29.1 °F 48% 30.23 in 10.0 mi North 26.5 mph 32.2 mph N/A   Clear
4:35 PM 47.3 °F - 27.0 °F 45% 30.24 in 10.0 mi North 21.9 mph 27.6 mph N/A   Clear
4:55 PM 46.4 °F 38.5 °F 24.4 °F 42% 30.26 in 10.0 mi North 21.9 mph 31.1 mph N/A   Clear
5:15 PM 45.5 °F 37.1 °F 23.2 °F 41% 30.26 in 10.0 mi NNE 23.0 mph 27.6 mph N/A   Clear
5:35 PM 44.2 °F 36.7 °F 23.0 °F 43% 30.27 in 10.0 mi North 17.3 mph - N/A   Clear
5:55 PM 43.9 °F 35.9 °F 23.7 °F 45% 30.28 in 10.0 mi North 18.4 mph - N/A   Clear
6:15 PM 43.0 °F 35.1 °F 26.1 °F 51% 30.30 in 10.0 mi North 17.3 mph - N/A   Clear
6:35 PM 42.1 °F 33.6 °F 26.4 °F 54% 30.31 in 10.0 mi North 18.4 mph 23.0 mph N/A   Clear
6:55 PM 41.2 °F 32.7 °F 26.6 °F 56% 30.33 in 10.0 mi North 17.3 mph 20.7 mph N/A   Clear
7:15 PM 40.8 °F 33.3 °F 26.8 °F 57% 30.34 in 10.0 mi North 13.8 mph - N/A   Clear
7:35 PM 39.7 °F 31.5 °F 27.3 °F 61% 30.36 in 10.0 mi North 15.0 mph - N/A   Clear
7:55 PM 39.4 °F 31.1 °F 27.1 °F 62% 30.36 in 10.0 mi NNE 15.0 mph - N/A   Clear
8:15 PM 38.8 °F 30.4 °F 26.8 °F 62% 30.37 in 10.0 mi NNE 15.0 mph - N/A   Clear
8:35 PM 38.1 °F 30.7 °F 26.6 °F 63% 30.39 in 10.0 mi NNE 11.5 mph - N/A   Clear
8:55 PM 37.4 °F 29.3 °F 26.4 °F 65% 30.40 in 10.0 mi North 12.7 mph 18.4 mph N/A   Clear
9:15 PM 36.5 °F 27.4 °F 26.6 °F 67% 30.40 in 10.0 mi North 15.0 mph - N/A   Clear
9:35 PM 36.5 °F 27.4 °F 27.3 °F 69% 30.40 in 10.0 mi NNE 15.0 mph 20.7 mph N/A   Clear
9:55 PM 35.6 °F 27.1 °F 27.3 °F 72% 30.42 in 10.0 mi North 12.7 mph 17.3 mph N/A   Clear
10:15 PM 34.7 °F 25.9 °F 27.1 °F 74% 30.42 in 10.0 mi North 12.7 mph - N/A   Clear
10:35 PM 34.5 °F 25.7 °F 27.0 °F 74% 30.42 in 10.0 mi North 12.7 mph - N/A   Clear
10:55 PM 34.0 °F 25.5 °F 27.3 °F 77% 30.42 in 10.0 mi North 11.5 mph - N/A   Clear
11:15 PM 34.0 °F 24.6 °F 27.5 °F 77% 30.42 in 10.0 mi NNE 13.8 mph - N/A   Clear
11:35 PM 33.1 °F 24.4 °F 27.5 °F 80% 30.43 in 10.0 mi North 11.5 mph - N/A   Clear
11:55 PM 32.5 °F 23.2 °F 27.5 °F 82% 30.42 in 10.0 mi North 12.7 mph - N/A   Clear